Wind from 248 at 2 knots gusting 6

Air temperature 20.6° C
Dewpoint 6.8° C

Last reported at 2014-Apr-19 23:49 UTC.
Time now 2014-Apr-20 00:55 UTC

Location: N 38°02' E 014°02'.
View on Google Maps.

See reports from other nearby stations

Tides Stations Pressure Air Temp Water Temp Dewpoint Dewpoint depression Visibility Wind Speed Wind Dir Waves Ship positions

  
sailing weather and tide predictions

DW2770 Cefalu IT weather

date/time (UTC)wind fromknots sea level pressurealtimeterstation pressurevisibilityair tempwater tempwave heightnotes
2014-Apr-19 23:49 248 2 gusting 6 20.6
2014-Apr-19 23:39 051 6 gusting 6 20.0
2014-Apr-19 23:29 311 4 gusting 7 21.7
2014-Apr-19 23:19 112 1 gusting 4 18.3
2014-Apr-19 23:09 072 1 gusting 5 18.9
2014-Apr-19 22:59 344 4 gusting 6 18.3
2014-Apr-19 22:49 068 5 gusting 7 18.9
2014-Apr-19 22:39 046 2 gusting 7 17.8
2014-Apr-19 22:29 183 7 gusting 7 16.7
2014-Apr-19 22:19 022 0 gusting 4 16.1
2014-Apr-19 22:09 085 0 gusting 5 16.7
2014-Apr-19 21:59 100 0 gusting 2 16.7
2014-Apr-19 21:49 180 16.1
2014-Apr-19 21:39 153 16.1
2014-Apr-19 21:29 180 2 gusting 8 16.1
2014-Apr-19 21:19 112 15.6
2014-Apr-19 21:09 184 0 gusting 1 15.6
2014-Apr-19 20:59 183 15.6
2014-Apr-19 20:49 180 16.1
2014-Apr-19 20:39 202 0 gusting 2 16.1
2014-Apr-19 20:29 242 2 gusting 2 16.1
2014-Apr-19 20:19 202 15.6
2014-Apr-19 20:09 158 15.6
2014-Apr-19 19:59 120 15.6
2014-Apr-19 19:49 022 15.6
2014-Apr-19 19:39 292 15.6
2014-Apr-19 19:29 083 16.1
2014-Apr-19 19:19 202 0 gusting 1 15.6
2014-Apr-19 19:09 071 1 gusting 1 15.6
2014-Apr-19 18:59 106 16.1
2014-Apr-19 18:49 045 16.1
2014-Apr-19 18:39 158 16.1
2014-Apr-19 18:29 112 16.1
2014-Apr-19 18:19 202 2 gusting 4 16.7
2014-Apr-19 18:09 180 16.7
2014-Apr-19 17:59 199 0 gusting 6 16.7
2014-Apr-19 17:49 225 1 gusting 6 16.7
2014-Apr-19 17:39 201 4 gusting 5 16.7
2014-Apr-19 17:29 186 16.7
2014-Apr-19 17:19 202 0 gusting 1 16.7
2014-Apr-19 17:09 202 16.7
2014-Apr-19 16:59 153 16.7
2014-Apr-19 16:49 202 0 gusting 1 16.1
2014-Apr-19 16:39 16.1
2014-Apr-19 16:29 076 2 gusting 6 16.1
2014-Apr-19 16:19 045 4 gusting 5 16.1
2014-Apr-19 16:09 090 2 gusting 4 16.7
2014-Apr-19 15:59 068 2 gusting 4 16.7
2014-Apr-19 15:49 068 1 gusting 4 16.7
2014-Apr-19 15:39 068 1 gusting 2 16.7
2014-Apr-19 15:29 068 1 gusting 5 16.7
2014-Apr-19 15:19 068 1 gusting 2 17.2
2014-Apr-19 15:09 068 2 gusting 4 17.2
2014-Apr-19 14:59 062 2 gusting 5 17.2
2014-Apr-19 14:49 045 4 gusting 5 17.2
2014-Apr-19 14:39 068 3 gusting 6 17.2
2014-Apr-19 14:29 068 6 gusting 6 16.7
2014-Apr-19 14:19 17.2
2014-Apr-19 14:09 068 2 gusting 5 17.2
2014-Apr-19 13:59 074 2 gusting 4 17.2
2014-Apr-19 13:49 068 4 gusting 5 17.8
2014-Apr-19 13:39 068 5 gusting 5 17.8
2014-Apr-19 13:29 076 4 gusting 7 17.2
2014-Apr-19 13:19 068 6 gusting 6 17.2
2014-Apr-19 13:09 068 5 gusting 6 17.2
2014-Apr-19 12:59 077 4 gusting 5 17.8
2014-Apr-19 12:49 045 5 gusting 7 17.8
2014-Apr-19 12:39 045 4 gusting 6 17.8
2014-Apr-19 12:29 068 2 gusting 6 17.8
2014-Apr-19 12:19 045 3 gusting 6 17.8
2014-Apr-19 12:09 068 4 gusting 6 18.3
2014-Apr-19 11:59 085 6 gusting 7 17.8
2014-Apr-19 11:49 090 6 gusting 6 16.7
2014-Apr-19 11:39 068 5 gusting 6 17.8
2014-Apr-19 11:29 079 5 gusting 6 17.8
2014-Apr-19 11:19 045 2 gusting 4 17.8
2014-Apr-19 11:09 068 3 gusting 7 17.8
2014-Apr-19 10:59 055 4 gusting 6 17.8
2014-Apr-19 10:49 045 6 gusting 6 17.8
2014-Apr-19 10:39 045 4 gusting 6 17.8
2014-Apr-19 10:29 057 5 gusting 6 17.8
2014-Apr-19 10:19 068 2 gusting 4 18.3
2014-Apr-19 10:09 068 1 gusting 4 18.3
2014-Apr-19 09:59 064 0 gusting 4 18.3
2014-Apr-19 09:49 180 2 gusting 2 18.3
2014-Apr-19 09:39 270 2 gusting 5 18.3
2014-Apr-19 09:29 315 3 gusting 8 18.3
2014-Apr-19 09:19 270 2 gusting 6 18.3
2014-Apr-19 09:09 248 5 gusting 14 17.8
2014-Apr-19 08:59 230 13 gusting 14 17.2
2014-Apr-19 08:49 292 2 gusting 6 16.7
2014-Apr-19 08:39 225 4 gusting 6 16.7
2014-Apr-19 08:29 266 5 gusting 8 17.2
2014-Apr-19 08:19 202 3 gusting 7 16.7
2014-Apr-19 08:09 315 2 gusting 5 16.7
2014-Apr-19 07:59 270 1 gusting 5 16.1
2014-Apr-19 07:49 292 3 gusting 5 16.1
2014-Apr-19 07:39 248 4 gusting 6 16.1
2014-Apr-19 07:29 315 6 gusting 6 16.1
2014-Apr-19 07:19 292 5 gusting 6 16.1
2014-Apr-19 07:09 270 5 gusting 6 16.1
2014-Apr-19 06:59 255 4 gusting 6 16.1
2014-Apr-19 06:49 270 5 gusting 7 15.6
2014-Apr-19 06:39 248 4 gusting 5 15.6
2014-Apr-19 06:29 241 2 gusting 5 15.0
2014-Apr-19 06:19 225 15.0
2014-Apr-19 06:09 225 1 gusting 1 15.0
2014-Apr-19 05:59 225 15.0
2014-Apr-19 05:49 202 0 gusting 1 14.4
2014-Apr-19 05:39 202 1 gusting 1 13.9
2014-Apr-19 05:29 248 0 gusting 2 13.9
2014-Apr-19 05:19 202 2 gusting 2 13.3
2014-Apr-19 05:09 202 12.8
2014-Apr-19 04:59 202 12.2
2014-Apr-19 04:49 180 3 gusting 6 11.7
2014-Apr-19 04:39 202 6 gusting 7 11.7
2014-Apr-19 04:29 196 5 gusting 6 11.7
2014-Apr-19 04:19 201 4 gusting 6 11.7
2014-Apr-19 04:09 180 4 gusting 4 11.7
2014-Apr-19 03:59 186 1 gusting 5 11.7
2014-Apr-19 03:49 202 5 gusting 5 11.7
2014-Apr-19 03:39 180 2 gusting 2 12.2
2014-Apr-19 03:29 196 2 gusting 5 12.2
2014-Apr-19 03:19 158 4 gusting 7 11.7
2014-Apr-19 03:09 202 5 gusting 6 11.7
2014-Apr-19 02:59 213 2 gusting 6 11.7
2014-Apr-19 02:49 163 5 gusting 6 11.7
2014-Apr-19 02:39 202 3 gusting 6 11.7
2014-Apr-19 02:29 165 1 gusting 5 11.7
2014-Apr-19 02:19 180 2 gusting 4 11.7
2014-Apr-19 02:09 202 2 gusting 5 12.2
2014-Apr-19 01:59 180 4 gusting 6 12.8
2014-Apr-19 01:49 202 2 gusting 6 12.8
2014-Apr-19 01:39 180 2 gusting 8 12.8
2014-Apr-19 01:29 202 8 gusting 8 12.8
2014-Apr-19 01:19 184 6 gusting 10 12.8
2014-Apr-19 01:09 202 7 gusting 10 12.8
2014-Apr-19 00:59 221 5 gusting 10 13.3
2014-Apr-19 00:49 205 6 gusting 10 12.8
2014-Apr-19 00:39 248 8 gusting 10 13.3
2014-Apr-19 00:29 204 7 gusting 11 13.3
2014-Apr-19 00:19 239 10 gusting 11 13.3
2014-Apr-19 00:09 180 7 gusting 10 13.3
2014-Apr-18 23:59 195 7 gusting 12 13.3
2014-Apr-18 23:49 222 11 gusting 13 13.3
2014-Apr-18 23:39 202 13 gusting 14 13.3
2014-Apr-18 23:29 223 10 gusting 14 12.8
2014-Apr-18 23:19 202 8 gusting 12 13.3
2014-Apr-18 23:09 202 7 gusting 12 12.8
2014-Apr-18 22:59 225 11 gusting 12 12.8
2014-Apr-18 22:49 206 8 gusting 12 12.8
2014-Apr-18 22:39 202 8 gusting 13 12.8
2014-Apr-18 22:29 202 7 gusting 13 12.8
2014-Apr-18 22:19 219 12 gusting 13 12.8
2014-Apr-18 22:09 202 10 gusting 12 12.8
2014-Apr-18 21:59 204 7 gusting 12 12.8
2014-Apr-18 21:49 202 8 gusting 8 12.8
2014-Apr-18 21:39 180 6 gusting 6 12.8
2014-Apr-18 21:29 202 5 gusting 8 12.8
2014-Apr-18 21:19 202 5 gusting 8 12.8
2014-Apr-18 21:09 202 6 gusting 8 12.8
2014-Apr-18 20:59 202 6 gusting 8 12.8
2014-Apr-18 20:49 202 5 gusting 8 12.8
2014-Apr-18 20:40 202 6 gusting 7 12.8
2014-Apr-18 20:29 248 2 gusting 6 12.8
2014-Apr-18 20:19 208 6 gusting 6 13.3
2014-Apr-18 20:09 202 5 gusting 6 13.3
2014-Apr-18 19:59 225 6 gusting 8 13.3
2014-Apr-18 19:49 225 4 gusting 10 13.3
2014-Apr-18 19:39 202 6 gusting 10 12.8
2014-Apr-18 19:29 225 8 gusting 10 12.8
2014-Apr-18 19:19 213 6 gusting 7 12.8
2014-Apr-18 19:09 225 6 gusting 6 12.8
2014-Apr-18 18:59 202 5 gusting 5 12.8
2014-Apr-18 18:49 219 4 gusting 6 12.8
2014-Apr-18 18:39 180 5 gusting 6 12.8
2014-Apr-18 18:29 225 5 gusting 8 12.8
2014-Apr-18 18:20 202 5 gusting 6 12.8
2014-Apr-18 18:09 180 5 gusting 6 12.8
2014-Apr-18 17:59 225 3 gusting 6 13.3
2014-Apr-18 17:49 213 5 gusting 6 13.3
2014-Apr-18 17:39 202 2 gusting 6 13.9
2014-Apr-18 17:29 225 4 gusting 6 13.9
2014-Apr-18 17:19 225 5 gusting 7 14.4
2014-Apr-18 17:09 292 3 gusting 5 14.4
2014-Apr-18 16:59 270 2 gusting 6 14.4
2014-Apr-18 16:49 241 3 gusting 6 14.4
2014-Apr-18 16:39 292 5 gusting 6 14.4
2014-Apr-18 16:29 292 6 gusting 7 15.0
2014-Apr-18 16:19 320 7 gusting 10 14.4
2014-Apr-18 16:09 292 4 gusting 8 14.4
2014-Apr-18 15:59 180 5 gusting 10 15.0
2014-Apr-18 15:49 248 2 gusting 11 15.0
2014-Apr-18 15:39 270 3 gusting 7 15.0
2014-Apr-18 15:29 225 5 gusting 7 15.6
2014-Apr-18 15:19 211 3 gusting 6 15.0
2014-Apr-18 15:09 246 6 gusting 6 15.0
2014-Apr-18 14:59 270 5 gusting 10 15.0
2014-Apr-18 14:49 268 9 gusting 10 15.0
2014-Apr-18 14:39 225 4 gusting 10 15.0
2014-Apr-18 14:29 248 7 gusting 10 15.6
2014-Apr-18 14:19 215 6 gusting 7 15.6
2014-Apr-18 14:09 315 7 gusting 10 15.0
2014-Apr-18 13:59 292 4 gusting 7 15.0
2014-Apr-18 13:49 292 7 gusting 7 15.0
2014-Apr-18 13:39 225 5 gusting 7 15.6
2014-Apr-18 13:29 292 2 gusting 5 15.6
2014-Apr-18 13:19 326 5 gusting 7 15.6
2014-Apr-18 13:09 358 3 gusting 6 15.0
2014-Apr-18 12:59 315 6 gusting 10 15.0
2014-Apr-18 12:49 270 5 gusting 10 15.0
2014-Apr-18 12:39 292 6 gusting 8 15.0
2014-Apr-18 12:30 338 5 gusting 6 15.0
2014-Apr-18 12:19 255 2 gusting 7 15.0
2014-Apr-18 12:09 291 4 gusting 6 15.0
2014-Apr-18 12:00 270 6 gusting 6 15.0
2014-Apr-18 11:50 275 4 gusting 6 15.0
2014-Apr-18 11:40 225 2 gusting 6 15.0
2014-Apr-18 11:30 315 3 gusting 6 14.4
2014-Apr-18 11:19 297 4 gusting 6 14.4
2014-Apr-18 11:09 315 3 gusting 7 14.4
2014-Apr-18 10:59 315 7 gusting 8 14.4
2014-Apr-18 10:49 315 7 gusting 8 14.4
2014-Apr-18 10:39 292 5 gusting 7 14.4
2014-Apr-18 10:29 292 2 gusting 5 14.4
2014-Apr-18 10:19 230 2 gusting 6 14.4
2014-Apr-18 10:09 225 4 gusting 6 14.4
2014-Apr-18 09:59 248 4 gusting 6 13.9
2014-Apr-18 09:49 263 2 gusting 5 13.9
2014-Apr-18 09:39 270 4 gusting 5 13.9
2014-Apr-18 09:29 270 4 gusting 6 13.9
2014-Apr-18 09:19 309 5 gusting 6 13.9
2014-Apr-18 09:09 291 5 gusting 8 13.3
2014-Apr-18 08:59 225 4 gusting 4 13.3
2014-Apr-18 08:49 270 4 gusting 10 13.3
2014-Apr-18 08:39 227 8 gusting 10 13.3
2014-Apr-18 08:30 248 5 gusting 8 13.3
2014-Apr-18 08:19 258 6 gusting 10 13.3
2014-Apr-18 08:09 292 6 gusting 6 13.3
2014-Apr-18 07:59 292 5 gusting 8 13.3
2014-Apr-18 07:49 280 1 gusting 6 13.3
2014-Apr-18 07:39 248 2 gusting 4 12.8
2014-Apr-18 07:29 270 4 gusting 5 12.8
2014-Apr-18 07:19 299 2 gusting 5 12.8
2014-Apr-18 07:09 270 5 gusting 8 12.8
2014-Apr-18 06:59 202 2 gusting 6 12.8
2014-Apr-18 06:49 248 6 gusting 10 12.2
2014-Apr-18 06:39 226 6 gusting 7 12.2
2014-Apr-18 06:29 225 6 gusting 7 12.2
2014-Apr-18 06:19 225 6 gusting 8 11.7
2014-Apr-18 06:09 225 6 gusting 6 11.7
2014-Apr-18 05:59 225 6 gusting 6 11.7
2014-Apr-18 05:49 247 6 gusting 6 11.7
2014-Apr-18 05:39 225 6 gusting 7 11.1
2014-Apr-18 05:29 225 6 gusting 12 11.1
2014-Apr-18 05:19 202 8 gusting 12 10.6
2014-Apr-18 05:09 207 11 gusting 12 10.0
2014-Apr-18 04:59 209 9 gusting 12 10.0
2014-Apr-18 04:49 243 8 gusting 12 10.0
2014-Apr-18 04:40 239 11 gusting 13 10.0
2014-Apr-18 04:29 173 10 gusting 13 10.6
2014-Apr-18 04:19 202 7 gusting 11 10.0
2014-Apr-18 04:09 178 7 gusting 13 10.0
2014-Apr-18 03:59 225 7 gusting 13 10.0
2014-Apr-18 03:50 195 12 gusting 13 9.4
2014-Apr-18 03:39 180 13 gusting 18 9.4
2014-Apr-18 03:29 225 12 gusting 14 9.4
2014-Apr-18 03:19 203 13 gusting 14 10.0
2014-Apr-18 03:09 245 10 gusting 13 10.0
2014-Apr-18 02:59 202 11 gusting 14 10.0
2014-Apr-18 02:49 203 13 gusting 17 10.0
2014-Apr-18 02:39 247 13 gusting 17 10.0
2014-Apr-18 02:29 248 14 gusting 15 10.0
2014-Apr-18 02:19 227 12 gusting 19 10.0
2014-Apr-18 02:09 225 17 gusting 17 10.0
2014-Apr-18 01:59 225 13 gusting 18 10.0
2014-Apr-18 01:49 242 18 gusting 22 10.0
2014-Apr-18 01:39 202 15 gusting 17 10.0
2014-Apr-18 01:29 223 12 gusting 17 10.0
2014-Apr-18 01:19 202 11 gusting 17 10.0
2014-Apr-18 01:09 180 11 gusting 14 10.0
2014-Apr-18 00:59 205 12 gusting 14 10.0
2014-Apr-18 00:49 230 13 gusting 14 10.0
2014-Apr-18 00:39 202 12 gusting 15 10.0
2014-Apr-18 00:29 223 13 gusting 15 10.0
2014-Apr-18 00:19 202 10 gusting 17 10.6
2014-Apr-18 00:09 225 13 gusting 15 10.6